Temperature
18 18 18 18 18 18 18 18 18 18 18 18 18 18 18 18 18 18 18 18 18 18 18 18 17 17 17 17 17 17 17 17 16 16 16 16 16 16 16 16 16 16 16
18 18 18 18 18 18 18 18 18 18 18 18 18 18 18 18 18 18 18 18 18 18 18 17 17 17 17 17 17 17 17 17 16 16 16 16 16 16 16 16 16 16 15
18 18 18 18 18 18 18 18 18 18 18 18 18 18 18 18 18 18 18 18 18 17 17 17 17 17 17 17 17 17 17 17 16 16 16 16 16 16 16 16 16 16 15
19 18 18 18 18 18 18 18 18 18 18 18 18 18 18 18 18 18 18 18 18 17 17 17 17 17 17 17 17 17 17 17 17 16 16 16 16 16 16 16 16 16 15
19 18 18 18 18 18 18 18 18 18 18 18 18 18 18 18 18 18 18 18 17 17 17 17 17 17 17 17 17 17 17 17 16 16 16 16 16 16 16 16 16 16 16
19 19 18 18 18 18 18 18 18 18 18 18 18 18 18 18 18 18 18 18 18 17 17 17 17 17 17 17 17 17 17 17 16 16 16 16 16 16 16 16 16 16 15
18 18 18 18 18 18 18 18 18 18 18 18 18 18 18 18 18 18 18 18 18 18 18 17 17 17 17 17 17 17 17 17 16 16 16 16 16 16 16 16 16 16 16
18 18 18 18 18 18 18 18 18 18 18 18 18 18 18 18 18 18 18 18 18 18 18 18 17 17 17 17 17 17 17 17 16 16 16 16 16 16 16 16 16 16 16
18 18 18 18 18 18 18 18 18 18 18 18 18 18 18 18 18 18 18 18 18 18 18 18 18 18 17 17 17 17 17 17 17 16 16 16 16 16 16 16 16 16 16
18 18 18 18 18 18 18 18 18 18 18 18 18 18 18 18 18 18 18 18 18 18 18 18 18 18 18 18 17 17 17 17 17 17 16 16 16 16 16 16 16 16 16
18 18 18 18 18 18 18 18 18 18 18 18 18 18 18 18 18 18 18 18 18 18 18 18 18 18 18 18 18 17 17 17 17 17 17 16 16 16 16 16 16 16 16
18 18 18 18 18 18 18 18 18 18 18 18 18 18 18 18 18 18 18 18 18 18 18 18 18 18 18 18 18 18 17 17 17 17 17 17 16 16 16 16 16 16 16
18 18 18 18 18 18 18 18 18 18 18 18 18 18 18 18 18 18 18 18 18 18 18 18 18 18 18 18 18 18 17 17 17 17 17 17 16 16 16 16 16 16 16
18 18 18 18 18 18 18 18 18 18 18 18 17 17 18 18 18 18 18 18 18 18 18 18 18 18 18 18 18 18 17 17 17 17 17 17 16 16 16 16 16 16 15
18 18 18 18 18 18 18 17 17 17 17 17 17 17 17 18 18 17 17 17 17 17 17 18 18 18 18 18 18 17 17 17 17 17 17 17 16 16 16 16 16 16 15
18 18 18 17 17 17 17 17 17 17 17 17 17 17 17 17 17 17 17 17 17 17 17 17 17 17 17 17 17 17 17 17 17 17 17 16 16 16 16 16 16 15 15
17 17 17 17 17 17 17 17 17 17 17 17 17 17 17 17 17 17 17 17 17 17 17 17 17 17 17 17 17 17 17 17 17 16 16 16 16 16 16 16 15 15 15
17 17 17 17 17 17 16 16 16 17 17 17 17 17 17 17 17 17 16 17 17 17 17 17 17 17 17 17 16 16 16 16 16 16 16 16 16 16 15 15 15 15 15
17 17 17 17 17 16 16 16 16 16 16 16 16 16 16 16 16 16 16 16 16 16 16 16 16 16 16 16 16 16 16 16 16 16 16 15 15 15 15 15 15 15 15
17 17 17 17 16 16 16 16 16 16 16 16 16 16 16 16 16 16 16 16 16 16 16 16 16 16 16 15 15 15 15 15 15 15 15 15 15 15 15 15 14 14 14
17 16 16 16 16 16 16 16 16 16 16 16 15 15 15 15 15 15 15 15 15 15 15 15 15 15 15 15 15 14 14 14 14 14 14 14 14 14 14 14 14 14 14
16 16 16 16 16 16 16 16 16 15 15 15 15 15 15 15 15 15 15 15 14 14 14 14 14 14 14 14 14 14 14 14 13 13 13 14 14 14 14 13 13 13 13
16 16 16 16 15 15 15 15 15 15 15 15 15 15 15 14 14 14 14 14 14 14 14 13 13 13 13 13 13 13 13 13 13 12 13 13 13 13 13 13 12 12 12
16 16 15 15 15 15 15 15 14 14 14 14 14 14 14 14 14 14 14 13 13 13 13 13 13 12 12 12 12 12 12 12 12 12 12 12 12 12 12 12 11 11 11
15 15 15 15 14 14 14 14 14 14 14 14 13 13 13 13 13 13 13 13 13 12 12 12 12 12 12 12 11 12 11 11 11 11 11 11 11 11 11 11 10 10 10
15 14 14 14 14 13 13 13 13 13 13 13 13 13 13 13 12 12 12 12 12 12 12 11 11 11 11 11 11 11 11 10 10 10 10 10 10 10 10 10 10 9 9
Wind_Speed
6 6 6 7 7 7 6 5 4 4 3 3 5 8 9 10 11 12 13 17 16 15 15 14 14 13 13 12 12 11 10 10 10 10 9 9 9 9 9 8 8 8 8
9 7 6 6 7 8 8 7 5 3 3 3 3 7 9 12 13 13 14 16 17 16 16 15 15 14 13 13 12 12 11 11 11 11 10 10 10 9 9 9 8 9 9
12 9 6 6 7 10 9 7 5 3 2 2 2 4 7 10 12 13 14 14 15 16 17 16 15 15 14 14 13 13 12 12 12 12 11 11 10 10 10 9 9 9 9
14 10 6 5 9 9 7 4 3 2 2 2 2 3 4 7 10 12 13 13 14 14 16 17 16 16 16 15 15 14 14 14 13 13 12 12 12 11 11 11 10 10 10
13 10 6 6 9 6 4 5 3 3 3 3 3 3 3 4 6 10 10 13 15 15 15 17 17 17 17 16 16 15 15 15 15 14 14 13 13 13 13 12 12 12 12
12 10 7 7 7 4 4 4 3 3 3 3 2 1 2 4 4 6 8 11 14 15 16 15 16 17 18 17 17 17 17 16 16 16 16 15 15 15 14 14 14 13 13
11 9 6 5 5 5 6 6 4 3 2 2 2 1 3 2 3 5 6 7 9 14 16 16 16 15 16 19 20 19 18 18 17 17 17 17 16 16 16 16 15 15 15
11 10 7 6 6 5 5 5 4 3 3 3 3 2 1 3 3 4 4 6 7 9 11 15 16 17 16 16 18 21 20 20 19 19 18 18 18 17 17 17 17 16 16
12 10 9 7 7 7 6 6 6 6 4 3 3 4 3 4 3 3 3 5 5 6 7 11 15 17 18 17 17 19 21 21 20 19 19 19 19 19 18 17 17 17 17
10 11 9 8 7 6 7 7 6 5 5 3 2 3 3 4 3 2 3 3 4 6 7 8 11 15 17 17 18 19 22 23 22 21 20 19 20 20 19 18 17 17 17
8 10 10 8 7 7 7 7 6 6 5 5 4 3 2 1 2 3 3 3 3 4 5 6 7 11 15 17 17 19 21 22 22 21 21 20 19 19 19 18 18 18 18
6 8 9 8 8 7 7 7 7 7 6 6 4 4 4 3 3 3 3 3 3 4 4 4 5 7 12 15 17 19 22 23 23 22 22 21 20 19 18 18 17 17 17
6 8 8 7 7 7 7 7 7 7 7 6 6 5 4 4 3 4 4 3 3 3 2 2 4 6 10 12 14 18 19 21 22 22 22 21 20 19 18 18 17 17 17
7 7 7 8 8 7 8 6 6 6 6 6 7 6 4 4 4 4 4 3 1 2 2 4 2 4 7 10 13 15 15 19 20 21 21 21 20 19 18 18 17 17 17
6 7 7 7 7 8 7 7 5 6 6 6 6 6 5 4 3 3 3 4 4 3 4 4 3 3 5 7 10 11 12 15 19 20 20 20 20 20 19 18 18 17 17
5 6 7 6 6 7 7 6 5 5 5 5 4 5 4 3 2 2 2 3 4 4 4 4 4 3 2 4 6 8 9 11 15 18 19 19 19 19 18 18 18 17 17
4 5 5 6 6 6 6 6 6 5 5 5 4 5 4 3 2 2 2 2 3 3 4 4 3 2 1 1 2 4 6 7 9 13 16 17 17 17 18 18 18 18 18
2 3 4 5 5 5 5 6 6 5 6 5 5 4 3 3 2 2 2 2 2 3 4 4 3 1 1 2 1 1 2 4 6 9 12 14 16 16 17 17 17 17 17
2 2 2 4 4 4 5 5 5 5 5 5 5 5 4 4 3 2 2 2 2 2 2 2 2 2 1 1 1 1 2 2 3 5 7 10 11 12 13 14 14 15 15
3 2 2 2 3 3 4 4 4 4 4 4 3 4 4 4 4 3 2 2 1 1 1 1 1 1 1 2 1 1 2 2 3 3 3 3 4 6 7 8 9 10 12
3 3 3 3 3 2 2 4 4 4 4 3 2 2 2 3 3 3 2 2 1 1 1 1 1 1 2 2 1 1 2 2 2 2 2 2 2 2 3 4 5 7 8
5 5 5 4 4 3 5 6 5 4 4 4 3 2 3 4 5 5 5 4 3 2 2 1 0 0 1 1 1 1 1 1 2 2 1 2 1 1 2 2 4 4 5
6 6 5 6 5 5 7 8 7 5 4 4 4 4 3 4 4 4 6 7 7 5 2 2 1 1 1 2 1 1 1 1 2 3 0 2 2 2 4 4 5 4 4
6 6 6 6 6 6 8 8 8 6 6 5 4 4 4 4 4 4 5 6 5 5 4 3 2 2 2 2 0 1 1 1 1 2 2 1 2 2 3 5 6 6 7
7 7 7 7 7 7 8 8 7 6 6 6 6 6 6 6 7 8 7 7 6 6 9 10 9 8 9 8 5 3 3 2 2 2 3 1 2 2 2 2 5 8 8
7 7 8 8 8 8 10 9 7 6 7 6 6 7 9 8 9 9 7 7 7 4 5 7 8 9 8 9 9 4 2 1 1 2 3 2 2 2 3 3 3 6 8
Wind_Direction
172 176 176 180 187 187 188 192 208 231 244 223 179 160 160 162 165 170 178 181 180 179 178 179 180 180 181 182 182 182 182 180 178 178 179 179 178 179 179 179 178 178 178
175 175 177 184 194 197 197 197 204 215 230 199 172 164 164 166 171 176 180 186 188 187 186 187 188 189 190 191 191 191 191 190 189 189 190 190 191 191 191 190 190 189 190
177 174 177 186 196 197 197 200 208 212 208 185 176 169 163 171 175 180 184 188 192 195 195 196 196 197 198 199 199 199 200 200 199 199 200 200 200 200 200 200 201 199 201
178 172 175 186 190 187 185 183 183 179 198 188 191 188 171 177 182 185 188 192 194 200 204 205 203 203 206 206 206 207 206 205 205 205 207 208 208 208 209 210 211 210 211
180 174 179 185 184 179 180 193 178 174 189 202 203 199 192 187 186 190 192 197 200 203 204 209 210 209 211 212 213 213 212 211 211 211 214 216 216 215 217 218 218 218 219
183 177 181 182 176 168 176 179 170 174 184 193 201 206 229 212 197 195 198 201 205 208 208 210 212 216 218 218 219 219 218 217 217 217 218 220 221 220 221 223 225 225 225
187 182 182 177 172 177 185 178 165 172 193 157 103 358 327 287 228 216 205 198 204 208 208 209 211 214 219 222 223 223 224 223 221 221 221 222 223 223 223 226 229 230 231
192 192 182 183 181 179 184 184 168 167 195 163 141 122 332 330 302 241 214 205 207 205 206 210 211 213 216 219 224 226 227 228 226 225 224 224 225 225 226 227 229 231 233
197 194 186 185 187 184 192 193 179 170 186 202 171 153 162 223 273 296 242 218 203 201 209 210 212 215 217 219 223 227 229 229 230 230 227 225 225 226 227 228 230 232 234
199 196 193 191 191 191 193 199 189 177 169 193 214 205 185 166 170 276 304 260 223 212 212 215 216 216 217 219 222 225 228 228 229 230 230 228 228 228 229 231 233 235 235
201 197 196 193 194 194 198 198 186 184 182 184 190 192 194 179 164 169 255 287 279 241 220 214 214 216 217 218 221 225 227 228 228 230 231 231 230 231 231 233 236 238 238
210 204 200 198 198 197 201 201 194 190 193 190 189 187 178 179 194 182 207 243 257 263 239 219 215 215 217 217 221 225 226 227 228 228 229 230 229 230 232 234 238 240 241
211 213 209 202 202 204 202 196 196 199 196 194 198 203 201 204 185 176 182 215 245 274 278 241 226 220 218 214 220 225 226 226 227 228 228 229 231 233 234 236 238 242 243
210 208 207 203 202 204 207 195 198 204 201 203 210 204 207 215 197 186 180 175 217 284 284 269 263 229 224 217 221 223 226 226 227 227 227 229 231 235 237 237 240 242 245
210 204 203 207 206 206 205 194 201 206 198 202 207 206 209 217 201 194 183 174 175 218 259 269 265 252 230 221 225 220 222 224 225 227 228 229 231 234 235 237 239 241 243
208 199 205 203 207 206 200 191 197 198 191 199 198 197 205 209 199 193 189 194 188 189 230 256 252 260 245 226 222 218 225 231 229 229 231 234 235 236 238 240 241 241 243
202 201 200 198 201 202 197 194 198 191 191 196 198 190 202 198 199 202 192 200 195 181 217 260 263 276 240 227 228 228 234 233 236 234 234 236 238 240 241 242 242 242 243
199 202 194 190 194 193 190 189 196 191 186 191 195 186 202 205 200 207 205 209 204 198 202 243 284 318 297 242 227 248 255 248 243 243 240 240 241 242 244 245 245 245 245
161 163 173 182 182 183 182 187 191 188 185 188 189 191 199 188 205 209 205 211 224 215 190 207 262 298 320 346 9 336 321 297 278 265 248 245 247 248 250 250 249 248 247
128 129 144 155 156 158 171 175 172 167 167 170 174 182 189 192 200 192 191 195 189 142 130 146 275 325 329 331 43 356 330 312 298 315 313 283 273 267 263 260 259 259 256
112 109 104 104 109 124 143 135 140 151 149 148 142 145 147 142 143 146 154 151 130 107 94 78 327 354 349 355 330 308 295 301 313 324 334 334 344 341 304 278 273 273 266
88 88 85 88 89 96 102 108 121 127 136 138 133 123 104 84 80 84 88 95 114 135 157 147 267 295 297 300 316 322 306 341 313 318 349 312 353 327 312 302 303 294 289
90 85 84 86 86 80 92 96 104 108 106 107 105 100 93 78 80 80 72 64 57 53 90 135 124 286 303 296 299 328 313 241 256 288 6 303 340 335 331 337 339 346 344
86 83 81 82 83 70 80 86 89 92 90 86 86 97 98 84 70 79 77 68 59 45 48 65 79 41 21 347 335 277 281 314 311 340 26 328 340 333 339 349 3 4 353
84 77 77 76 78 63 68 81 92 96 90 79 73 71 78 75 64 74 82 78 63 45 50 60 63 60 54 44 44 57 38 44 357 334 2 30 333 328 326 331 355 2 353
89 84 75 67 69 65 60 69 84 91 89 81 70 62 61 69 64 69 80 81 71 45 42 48 44 39 40 38 37 46 61 67 42 336 339 17 340 357 341 320 329 344 349
Height
1560 1562 1564 1565 1566 1568 1569 1570 1571 1573 1574 1575 1575 1576 1577 1577 1578 1578 1578 1578 1579 1579 1580 1580 1581 1581 1582 1582 1583 1584 1584 1585 1585 1586 1587 1587 1588 1589 1589 1590 1591 1591 1592
1560 1562 1563 1565 1566 1568 1569 1571 1572 1573 1574 1574 1575 1576 1577 1577 1578 1578 1578 1578 1578 1579 1579 1580 1580 1581 1581 1582 1582 1583 1584 1585 1585 1586 1586 1587 1588 1588 1589 1590 1590 1591 1591
1559 1561 1563 1564 1566 1567 1569 1570 1571 1572 1573 1574 1575 1576 1576 1577 1577 1577 1578 1578 1578 1578 1579 1579 1580 1580 1581 1581 1582 1583 1583 1584 1585 1585 1586 1586 1587 1588 1588 1589 1589 1590 1591
1558 1560 1562 1563 1565 1566 1568 1569 1570 1571 1572 1573 1574 1575 1575 1576 1576 1577 1577 1577 1577 1578 1578 1578 1579 1579 1580 1580 1581 1582 1582 1583 1584 1584 1585 1585 1586 1587 1587 1588 1589 1589 1590
1557 1559 1561 1562 1564 1565 1567 1568 1569 1570 1571 1572 1573 1573 1574 1575 1575 1575 1576 1576 1576 1577 1577 1577 1578 1578 1578 1579 1579 1580 1581 1582 1582 1583 1584 1584 1585 1585 1586 1587 1587 1588 1588
1555 1557 1559 1561 1562 1564 1565 1566 1568 1569 1570 1571 1572 1572 1573 1573 1573 1574 1574 1574 1575 1575 1576 1576 1576 1577 1577 1577 1578 1578 1579 1580 1581 1581 1582 1582 1583 1584 1584 1585 1586 1586 1587
1553 1555 1556 1558 1560 1561 1563 1564 1566 1567 1568 1569 1570 1571 1571 1571 1571 1572 1572 1572 1573 1574 1574 1575 1575 1575 1576 1576 1576 1576 1577 1578 1578 1579 1580 1580 1581 1582 1582 1583 1583 1584 1585
1550 1552 1554 1555 1557 1559 1561 1562 1563 1564 1566 1567 1568 1568 1569 1570 1569 1569 1570 1570 1571 1571 1572 1573 1573 1573 1574 1574 1574 1574 1575 1575 1576 1576 1577 1578 1578 1579 1580 1580 1581 1581 1582
1547 1549 1551 1552 1554 1556 1558 1559 1561 1562 1563 1565 1566 1567 1566 1566 1566 1567 1567 1568 1568 1569 1569 1570 1571 1571 1571 1571 1572 1572 1572 1573 1573 1574 1574 1575 1575 1576 1577 1577 1578 1578 1579
1543 1545 1547 1549 1551 1553 1554 1556 1558 1559 1560 1562 1563 1564 1565 1565 1565 1565 1565 1565 1566 1566 1567 1567 1568 1568 1568 1569 1569 1570 1570 1570 1571 1571 1571 1572 1573 1573 1574 1574 1575 1575 1575
1540 1541 1543 1545 1547 1549 1551 1553 1554 1556 1557 1558 1560 1561 1562 1562 1562 1563 1563 1563 1564 1564 1564 1564 1565 1565 1565 1566 1566 1567 1567 1568 1568 1568 1569 1569 1569 1570 1570 1571 1571 1571 1571
1536 1538 1540 1541 1543 1545 1547 1549 1550 1552 1553 1555 1556 1557 1558 1559 1559 1560 1560 1561 1561 1561 1561 1562 1562 1562 1562 1563 1563 1563 1564 1565 1565 1565 1566 1566 1566 1567 1567 1567 1567 1567 1567
1531 1533 1535 1537 1538 1540 1543 1545 1547 1548 1549 1551 1552 1554 1555 1556 1557 1557 1558 1558 1558 1558 1558 1559 1559 1559 1559 1560 1560 1560 1561 1561 1562 1562 1563 1563 1563 1563 1563 1563 1563 1564 1563
1527 1529 1531 1533 1534 1536 1538 1540 1542 1544 1546 1547 1548 1550 1551 1552 1553 1554 1555 1555 1555 1555 1555 1555 1555 1555 1556 1556 1557 1557 1557 1558 1558 1559 1559 1559 1559 1559 1560 1560 1560 1560 1560
1523 1525 1526 1528 1530 1532 1534 1536 1538 1539 1541 1543 1544 1545 1547 1548 1549 1550 1551 1552 1553 1552 1551 1551 1552 1552 1552 1552 1553 1554 1554 1554 1555 1555 1555 1555 1555 1556 1556 1556 1556 1556 1556
1519 1520 1522 1524 1525 1527 1529 1531 1533 1535 1537 1538 1540 1541 1543 1544 1545 1546 1547 1548 1549 1549 1548 1548 1548 1548 1549 1549 1549 1550 1550 1550 1551 1551 1551 1551 1551 1551 1551 1551 1551 1551 1551
1515 1517 1518 1519 1521 1522 1524 1526 1528 1530 1532 1534 1536 1537 1538 1540 1541 1542 1543 1544 1545 1545 1545 1545 1545 1545 1545 1545 1545 1546 1546 1546 1546 1546 1546 1546 1547 1547 1547 1547 1546 1546 1546
1512 1514 1515 1515 1517 1518 1520 1522 1524 1526 1528 1530 1531 1533 1535 1536 1537 1538 1539 1540 1540 1541 1542 1541 1541 1541 1541 1541 1542 1542 1542 1542 1542 1542 1542 1542 1542 1542 1542 1542 1541 1541 1541
1510 1511 1512 1512 1513 1515 1517 1518 1520 1522 1524 1526 1527 1529 1531 1532 1533 1534 1535 1536 1537 1537 1538 1538 1537 1538 1538 1538 1538 1538 1538 1538 1538 1538 1538 1538 1538 1537 1537 1537 1536 1536 1535
1509 1509 1509 1510 1511 1512 1514 1516 1517 1519 1520 1522 1524 1526 1527 1529 1530 1531 1531 1532 1533 1534 1534 1534 1534 1534 1534 1534 1534 1533 1533 1533 1534 1534 1533 1533 1533 1532 1532 1531 1531 1531 1530
1508 1508 1508 1509 1510 1511 1512 1514 1515 1517 1518 1520 1521 1523 1524 1526 1527 1527 1528 1528 1529 1530 1530 1530 1530 1530 1530 1530 1530 1529 1529 1529 1529 1529 1529 1528 1528 1528 1527 1527 1526 1526 1526
1507 1507 1508 1508 1509 1510 1511 1512 1514 1515 1516 1517 1519 1520 1522 1523 1524 1525 1525 1526 1526 1527 1527 1527 1527 1527 1527 1527 1527 1526 1526 1525 1525 1525 1525 1524 1524 1523 1523 1522 1522 1522 1521
1507 1507 1508 1509 1509 1510 1511 1512 1513 1514 1515 1516 1517 1518 1519 1521 1522 1522 1523 1523 1523 1524 1525 1525 1524 1524 1524 1524 1524 1523 1523 1522 1521 1521 1520 1520 1519 1519 1519 1518 1518 1517 1516
1508 1508 1509 1509 1510 1511 1511 1512 1512 1513 1514 1515 1517 1518 1519 1520 1520 1521 1521 1521 1522 1522 1522 1522 1522 1522 1522 1521 1521 1521 1520 1519 1519 1517 1517 1516 1515 1515 1515 1514 1513 1512 1511
1509 1510 1510 1511 1511 1511 1512 1512 1513 1514 1514 1515 1517 1518 1518 1519 1520 1520 1520 1520 1521 1521 1522 1521 1521 1521 1520 1519 1519 1518 1517 1516 1515 1514 1513 1513 1512 1511 1511 1510 1509 1508 1507
1510 1511 1512 1512 1513 1513 1513 1513 1514 1515 1515 1516 1517 1518 1519 1519 1519 1519 1519 1520 1520 1521 1521 1521 1521 1520 1519 1519 1517 1516 1515 1514 1513 1512 1511 1511 1510 1509 1508 1507 1506 1505 1503